Weather History for Dumas, TX

Change the Weather History Date:

Thursday, May 3, 2012

  Actual Average (KBGD) Record (KBGD)
Temperature  
Mean Temperature 69 °F 64 °F  
Max Temperature 87 °F 77 °F 96 °F (1996)
Min Temperature 51 °F 51 °F 29 °F (1954)
Degree Days  
Heating Degree Days 0 4  
Month to date heating degree days 12  
Since 1 July heating degree days 3715  
Cooling Degree Days 4 3  
Month to date cooling degree days 8  
Year to date cooling degree days 52  
Growing Degree Days 19 (Base 50)    
Moisture  
Dew Point 34 °F    
Average Humidity 30    
Maximum Humidity 55    
Minimum Humidity 12    
Precipitation  
Precipitation 0.00 in 0.05 in 0.78 in (1958)
Month to date precipitation 0.14  
Year to date precipitation 4.30  
Snow  
Snow 0.00 in - 2.70 in (1978)
Month to date snowfall  
Since 1 July snowfall  
Snow Depth -    
Sea Level Pressure  
Sea Level Pressure 29.88 in    
Wind  
Wind Speed 9 mph (West)    
Max Wind Speed 15 mph    
Max Gust Speed 18 mph    
Visibility 10 miles    
Events      
T = Trace of Precipitation, MM = Missing Value Source: NWS Daily Summary

Daily Weather History Graph

Daily Weather History Graph

Search for Another Location

Airport:

Trip Planner

Search our weather history database for the weather conditions in past years. The results will help you decide how hot, cold, wet, or windy it might be!

Date:

Astronomy

May. 03, 2012 Rise Set
Actual Time 6:53 AM CDT 8:37 PM CDT
Civil Twilight 6:25 AM CDT 9:04 PM CDT
Nautical Twilight 5:52 AM CDT 9:38 PM CDT
Astronomical Twilight 5:16 AM CDT 10:13 PM CDT
Moon 6:07 PM CDT (5/3) 4:53 AM CDT (5/3)
Length of Visible Light 14h 39m
Length of Day
13h 44m
Waxing Gibbous, 91% of the Moon is Illuminated
May 3
Waxing Gibbous
May 5
Full
May 12
Last Quarter
May 20
New
May 28
First Quarter

Hourly Weather History & Observations

Time (CDT) Temp. Dew Point Humidity Pressure Visibility Wind Dir Wind Speed Gust Speed Precip Events Conditions
12:15 AM 68.0 °F 28.4 °F 23% 29.79 in 10.0 mi SSW 11.5 mph - N/A   Clear
12:35 AM 68.0 °F 26.6 °F 21% 29.79 in 10.0 mi SSW 11.5 mph - N/A   Clear
12:55 AM 64.4 °F 26.6 °F 24% 29.79 in 10.0 mi SSW 10.4 mph - N/A   Clear
1:15 AM 62.6 °F 26.6 °F 26% 29.79 in 10.0 mi SW 10.4 mph - N/A   Clear
1:35 AM 60.8 °F 28.4 °F 29% 29.79 in 10.0 mi SW 11.5 mph - N/A   Clear
1:55 AM 60.8 °F 24.8 °F 25% 29.78 in 10.0 mi SSW 10.4 mph - N/A   Clear
2:15 AM 59.0 °F 26.6 °F 29% 29.78 in 10.0 mi SW 11.5 mph - N/A   Clear
2:35 AM 59.0 °F 24.8 °F 27% 29.78 in 10.0 mi SW 11.5 mph - N/A   Clear
2:55 AM 60.8 °F 23.0 °F 23% 29.78 in 10.0 mi SW 13.8 mph - N/A   Clear
3:15 AM 60.8 °F 21.2 °F 22% 29.78 in 10.0 mi WSW 12.7 mph - N/A   Clear
3:35 AM 60.8 °F 21.2 °F 22% 29.78 in 10.0 mi WSW 13.8 mph - N/A   Clear
3:55 AM 60.8 °F 21.2 °F 22% 29.79 in - WSW 15.0 mph - N/A   Clear
4:15 AM 59.0 °F 23.0 °F 25% 29.82 in - WSW 13.8 mph - N/A   Clear
4:35 AM 55.4 °F 24.8 °F 31% 29.82 in 10.0 mi West 10.4 mph - N/A   Clear
4:55 AM 59.0 °F 24.8 °F 27% 29.82 in 10.0 mi West 10.4 mph - N/A   Clear
5:15 AM 59.0 °F 24.8 °F 27% 29.83 in 10.0 mi West 11.5 mph - N/A   Clear
5:35 AM 59.0 °F 24.8 °F 27% 29.83 in 10.0 mi West 11.5 mph - N/A   Clear
5:55 AM 53.6 °F 28.4 °F 38% 29.85 in 10.0 mi WNW 6.9 mph - N/A   Clear
6:15 AM 53.6 °F 28.4 °F 38% 29.86 in 10.0 mi West 8.1 mph - N/A   Clear
6:35 AM 53.6 °F 28.4 °F 38% 29.87 in 10.0 mi West 13.8 mph - N/A   Clear
6:55 AM 55.4 °F 28.4 °F 36% 29.88 in 10.0 mi WNW 10.4 mph - N/A   Clear
7:15 AM 51.8 °F 32.0 °F 47% 29.90 in - WNW 5.8 mph - N/A   Clear
7:35 AM 53.6 °F 33.8 °F 47% 29.90 in 10.0 mi NW 8.1 mph - N/A   Clear
7:55 AM 57.2 °F 41.0 °F 55% 29.91 in 10.0 mi North 11.5 mph - N/A   Clear
8:15 AM 59.0 °F 42.8 °F 55% 29.93 in 10.0 mi North 5.8 mph - N/A   Clear
8:35 AM 60.8 °F 44.6 °F 55% 29.93 in 10.0 mi North 10.4 mph - N/A   Clear
8:55 AM 60.8 °F 44.6 °F 55% 29.93 in 10.0 mi North 13.8 mph - N/A   Clear
9:15 AM 64.4 °F 44.6 °F 49% 29.94 in 10.0 mi North 13.8 mph 18.4 mph N/A   Clear
9:35 AM 64.4 °F 46.4 °F 52% 29.95 in 10.0 mi North 11.5 mph - N/A   Clear
9:55 AM 66.2 °F 46.4 °F 49% 29.95 in 10.0 mi North 12.7 mph 16.1 mph N/A   Clear
10:15 AM 68.0 °F 48.2 °F 49% 29.95 in - NNW 12.7 mph - N/A   Clear
10:35 AM 68.0 °F 48.2 °F 49% 29.97 in - North 8.1 mph - N/A   Clear
10:55 AM 68.0 °F 48.2 °F 49% 29.97 in - NNW 5.8 mph - N/A   Clear
11:35 AM - - N/A% - - North - - N/A   Unknown
11:55 AM 71.6 °F 50.0 °F 46% 29.96 in 10.0 mi North 6.9 mph - N/A   Clear
12:15 PM 71.6 °F 50.0 °F 46% 29.96 in 10.0 mi Calm Calm - N/A   Clear
12:35 PM 73.4 °F 50.0 °F 44% 29.96 in 10.0 mi Calm Calm - N/A   Clear
12:55 PM 73.4 °F 50.0 °F 44% 29.95 in 10.0 mi Calm Calm - N/A   Clear
1:15 PM 77.0 °F 50.0 °F 39% 29.95 in 10.0 mi Calm Calm - N/A   Clear
1:35 PM 77.0 °F 48.2 °F 36% 29.95 in 10.0 mi Calm Calm - N/A   Clear
1:55 PM 78.8 °F 46.4 °F 32% 29.94 in 10.0 mi ESE 3.5 mph - N/A   Clear
2:15 PM 80.6 °F 44.6 °F 28% 29.93 in 10.0 mi Calm Calm - N/A   Clear
2:35 PM 80.6 °F 42.8 °F 26% 29.93 in 10.0 mi Calm Calm - N/A   Clear
2:55 PM 82.4 °F 37.4 °F 20% 29.92 in 10.0 mi Calm Calm - N/A   Clear
3:15 PM 84.2 °F 37.4 °F 19% 29.91 in 10.0 mi Calm Calm - N/A   Clear
3:35 PM 86.0 °F 26.6 °F 12% 29.91 in 10.0 mi SW 11.5 mph - N/A   Clear
3:55 PM 86.0 °F 30.2 °F 13% 29.90 in 10.0 mi SW 10.4 mph 16.1 mph N/A   Clear
4:15 PM 86.0 °F 28.4 °F 12% 29.89 in 10.0 mi Calm Calm - N/A   Clear
4:35 PM 86.0 °F 30.2 °F 13% 29.88 in 10.0 mi Calm Calm - N/A   Clear
4:55 PM 86.0 °F 30.2 °F 13% 29.87 in 10.0 mi Calm Calm - N/A   Clear
5:15 PM 86.0 °F 30.2 °F 13% 29.86 in 10.0 mi Calm Calm - N/A   Clear
5:35 PM 86.0 °F 28.4 °F 12% 29.86 in 10.0 mi Calm Calm - N/A   Clear
5:55 PM 86.0 °F 28.4 °F 12% 29.86 in 10.0 mi Calm Calm - N/A   Clear
6:15 PM 87.8 °F 28.4 °F 12% 29.85 in 10.0 mi Calm Calm - N/A   Clear
6:35 PM 87.8 °F 28.4 °F 12% 29.84 in 10.0 mi Calm Calm - N/A   Clear
6:55 PM 87.8 °F 28.4 °F 12% 29.85 in 10.0 mi West 11.5 mph - N/A   Clear
7:15 PM 86.0 °F 28.4 °F 12% 29.85 in 10.0 mi West 10.4 mph - N/A   Clear
7:35 PM 84.2 °F 28.4 °F 13% 29.86 in 10.0 mi West 8.1 mph - N/A   Clear
7:55 PM 82.4 °F 30.2 °F 15% 29.86 in 10.0 mi WSW 6.9 mph - N/A   Clear
8:15 PM 80.6 °F 33.8 °F 18% 29.86 in 10.0 mi West 5.8 mph - N/A   Clear
8:35 PM 77.0 °F 33.8 °F 21% 29.87 in 10.0 mi West 9.2 mph - N/A   Clear
8:55 PM 71.6 °F 35.6 °F 27% 29.88 in 10.0 mi West 6.9 mph - N/A   Clear
9:15 PM 71.6 °F 35.6 °F 27% 29.89 in 10.0 mi WNW 8.1 mph - N/A   Clear
9:35 PM 69.8 °F 35.6 °F 28% 29.90 in 10.0 mi NW 4.6 mph - N/A   Clear
9:55 PM 69.8 °F 37.4 °F 31% 29.90 in 10.0 mi NW 4.6 mph - N/A   Clear
10:15 PM 69.8 °F 37.4 °F 31% 29.91 in 10.0 mi NW 3.5 mph - N/A   Clear
10:35 PM 68.0 °F 37.4 °F 33% 29.91 in 10.0 mi NNW 6.9 mph - N/A   Clear
10:55 PM 64.4 °F 41.0 °F 42% 29.91 in 10.0 mi North 8.1 mph - N/A   Clear
11:15 PM 62.6 °F 39.2 °F 42% 29.91 in 10.0 mi Calm Calm - N/A   Clear
11:35 PM 64.4 °F 41.0 °F 42% 29.91 in 10.0 mi Calm Calm - N/A   Clear
11:55 PM 64.4 °F 39.2 °F 40% 29.90 in 10.0 mi Calm Calm - N/A   Clear